[[{"header":{"parameterUnit":"m.s-1","parameterCategory":1,"la1":30.2991,"la2":30.254,"lo1":-89.0895,"lo2":-89.0444,"dy":0.0017,"dx":0.0017,"nx":28,"ny":28,"refTime":"2025-07-15T09:00:00:Z","depth":0,"parameterNumber":2,"parameterNumberName":"U-component_of_WINDS"},"data":[0,0,0,0,0,0,0,0,0,0,0,0,0,0,0,0,0,0,0,0,0,0,0,0,0,0,0,0,0,0,0,0,0,0,0,0,0,0,0,0,0,0,0,0,0,0,0,0,0,0,0,0,0,0,0,0,0,0,-0.5982,-0.5982,0,-0.6025,-0.6026,-0.6026,-0.6032,-0.6032,-0.6031,-0.6031,-0.608,-0.6082,-0.6084,0,0,0,0,0,0,0,0,0,0,0,0,0,-0.591,-0.5911,-0.5982,-0.5982,-0.5983,-0.6025,-0.6026,-0.6027,-0.6032,-0.6032,-0.6031,-0.603,-0.608,-0.6082,-0.6084,0,0,0,0,0,0,0,0,0,0,0,0,0,-0.5946,-0.5911,-0.5982,-0.5991,-0.5992,-0.6025,-0.6026,-0.6027,-0.6032,-0.6032,-0.6031,-0.603,-0.6079,-0.6082,-0.6084,-0.6113,0,0,-0.6092,-0.6093,0,0,0,0,0,0,0,0,-0.5944,-0.5949,-0.5989,-0.599,-0.5991,-0.6022,-0.6019,-0.6056,-0.6032,-0.6017,-0.6031,-0.603,-0.6062,-0.6066,-0.6076,-0.6116,-0.6118,-0.6092,-0.6094,-0.6095,-0.6096,0,0,0,0,0,0,0,-0.5941,-0.5947,-0.5999,-0.5989,-0.5991,-0.5995,-0.5999,-0.6026,-0.6043,-0.6018,-0.6019,-0.6024,-0.6063,-0.6073,-0.6077,-0.6119,-0.6092,-0.6095,-0.6096,-0.6097,-0.6188,-0.6189,0,0,0,0,0,0,-0.5936,-0.5945,-0.5998,-0.6,-0.5965,-0.5996,-0.6001,-0.6013,-0.6042,-0.6046,-0.6024,-0.6024,-0.6069,-0.6074,-0.6079,-0.6116,-0.6095,-0.6098,-0.6099,-0.6188,-0.6189,-0.619,0,0,0,0,0,0,-0.5935,-0.5941,-0.5996,-0.5973,-0.598,-0.5998,-0.6012,-0.6014,-0.6025,-0.6047,-0.605,-0.6031,-0.6069,-0.6075,-0.6105,-0.6118,-0.6099,-0.6101,-0.6187,-0.6188,-0.6189,-0.6191,0,0,0,0,0,0,-0.5933,-0.594,-0.595,-0.5973,-0.5981,-0.6019,-0.6012,-0.6016,-0.6029,-0.6029,-0.6055,-0.6058,-0.6069,-0.6101,-0.6108,-0.6121,-0.6103,-0.6185,-0.6187,-0.6189,-0.619,-0.6192,-0.6194,0,0,0,0,0,-0.593,-0.5949,-0.595,-0.5957,-0.5993,-0.602,-0.6025,-0.6035,-0.603,-0.6041,-0.6055,-0.6057,-0.6116,-0.6104,-0.6112,-0.6126,-0.6185,-0.6187,-0.6189,-0.6189,-0.6191,-0.6194,0,0,0,0,0,0,-0.5928,-0.5952,-0.5954,-0.598,-0.5998,-0.6021,-0.6034,-0.6038,-0.6058,-0.6057,-0.6071,-0.6077,-0.6107,-0.612,-0.6106,-0.6158,-0.615,-0.6154,-0.6148,-0.6151,-0.6153,-0.6149,-0.6105,0,0,0,0,0,-0.593,-0.5948,-0.5969,-0.5991,-0.6,-0.6016,-0.6028,-0.6034,-0.6054,-0.6062,-0.6079,-0.6099,-0.6123,-0.6137,-0.616,-0.6192,-0.6199,-0.6206,-0.6208,-0.621,-0.6213,-0.6233,-0.6237,-0.6196,-0.6196,-0.6196,0,0,-0.5936,-0.5951,-0.5962,-0.5991,-0.6005,-0.6026,-0.6022,-0.6043,-0.6059,-0.6066,-0.6095,-0.6108,-0.6133,-0.6164,-0.6179,-0.6176,-0.6226,-0.6213,-0.6214,-0.6216,-0.6236,-0.624,-0.6243,-0.6197,-0.6197,-0.6197,0,0,-0.5956,-0.5969,-0.5989,-0.6004,-0.6026,-0.6037,-0.6042,-0.6065,-0.6074,-0.6103,-0.6109,-0.613,-0.6169,-0.6187,-0.6201,-0.6232,-0.6235,-0.6239,-0.625,-0.627,-0.6273,-0.6276,-0.6288,-0.6292,-0.6242,-0.6242,-0.6242,0,-0.5961,-0.5989,-0.5999,-0.6021,-0.6035,-0.6041,-0.6063,-0.6078,-0.6106,-0.6117,-0.6113,-0.6164,-0.618,-0.6217,-0.6225,-0.6236,-0.6244,-0.6235,-0.6271,-0.6275,-0.6278,-0.629,-0.6294,-0.6242,-0.6242,-0.6242,-0.6242,0,-0.5995,-0.6015,-0.6029,-0.6056,-0.6071,-0.6093,-0.6109,-0.6124,-0.613,-0.6143,-0.6174,-0.6195,-0.6223,-0.6232,-0.6239,-0.6272,-0.6269,-0.6268,-0.6261,-0.6282,-0.6293,-0.6298,-0.6243,-0.6242,-0.6242,-0.6242,0,0,-0.6013,-0.6046,-0.6051,-0.6064,-0.609,-0.6107,-0.6131,-0.6157,-0.617,-0.6191,-0.6213,-0.6248,-0.6248,-0.6264,-0.6273,-0.6291,-0.6316,-0.6288,-0.6289,-0.6293,-0.6356,-0.6356,-0.6361,-0.6319,-0.632,-0.6321,-0.6354,0,-0.6036,-0.6076,-0.6087,-0.6121,-0.6142,-0.615,-0.6171,-0.6191,-0.6204,-0.6226,-0.6241,-0.6266,-0.6263,-0.6273,-0.6291,-0.6309,-0.6329,-0.6307,-0.6341,-0.6342,-0.6334,-0.6367,-0.6366,-0.6396,-0.6358,-0.6359,-0.636,0,-0.6068,-0.6088,-0.6125,-0.615,-0.6159,-0.6177,-0.6204,-0.6223,-0.6248,-0.6257,-0.6276,-0.6284,-0.6313,-0.6304,-0.6345,-0.633,-0.6346,-0.6357,-0.6359,-0.6362,-0.6352,-0.6371,-0.6406,-0.6411,-0.6367,-0.6366,-0.6366,0,-0.6078,-0.6115,-0.6142,-0.6153,-0.6183,-0.6197,-0.621,-0.6234,-0.6249,-0.6274,-0.6285,-0.6312,-0.6328,-0.635,-0.6367,-0.636,-0.6408,-0.64,-0.6417,-0.6417,-0.6426,-0.6425,-0.6464,-0.6436,-0.6436,-0.6436,-0.6436,0,-0.6103,-0.6125,-0.6147,-0.6164,-0.619,-0.6204,-0.6231,-0.6245,-0.6267,-0.6288,-0.6298,-0.6319,-0.634,-0.6365,-0.6379,-0.6411,-0.6418,-0.6428,-0.6431,-0.6427,-0.6426,-0.6437,-0.6435,-0.6437,-0.6437,-0.6437,-0.6437,0,-0.6118,-0.6134,-0.6164,-0.619,-0.6198,-0.6216,-0.624,-0.6258,-0.6273,-0.63,-0.6308,-0.6332,-0.6361,-0.6381,-0.6419,-0.6429,-0.6465,-0.6468,-0.6456,-0.6457,-0.6474,-0.6472,-0.6521,-0.6529,-0.6495,-0.6496,-0.6496,0,-0.6133,-0.615,-0.6179,-0.6193,-0.6206,-0.623,-0.6246,-0.6262,-0.6279,-0.631,-0.6325,-0.6355,-0.638,-0.6428,-0.645,-0.648,-0.6484,-0.65,-0.6489,-0.6485,-0.6486,-0.6484,-0.6487,-0.6501,-0.6501,-0.6501,-0.6502,0,-0.6158,-0.6165,-0.6186,-0.6212,-0.6231,-0.6252,-0.6274,-0.6286,-0.6307,-0.6326,-0.6356,-0.6375,-0.6414,-0.6445,-0.6478,-0.6495,-0.6503,-0.6505,-0.6511,-0.6506,-0.6499,-0.6504,-0.6461,-0.6503,-0.6503,-0.6503,-0.6503,-0.6503,-0.6173,-0.619,-0.6212,-0.6238,-0.6255,-0.6276,-0.6295,-0.6312,-0.6336,-0.6368,-0.6377,-0.6409,-0.6437,-0.6481,-0.65,-0.6527,-0.6525,-0.6533,-0.6535,-0.6537,-0.6538,-0.6495,-0.6533,-0.6533,-0.6533,-0.6533,-0.6533,0,-0.6199,-0.6214,-0.6237,-0.6267,-0.6287,-0.6292,-0.6317,-0.6334,-0.6361,-0.6385,-0.641,-0.6446,-0.6476,-0.6502,-0.6535,-0.6552,-0.6556,-0.656,-0.6559,-0.6563,-0.6537,-0.6529,-0.6556,-0.6556,-0.6556,-0.6556,-0.6556,-0.6556,-0.6214,-0.6243,-0.6253,-0.6292,-0.6309,-0.6338,-0.6352,-0.6372,-0.6392,-0.6431,-0.6456,-0.6472,-0.6498,-0.6533,-0.6562,-0.657,-0.6582,-0.6584,-0.6593,-0.6567,-0.6565,-0.6562,-0.6555,-0.6587,-0.6587,-0.6617,-0.6617,-0.6617]},{"header":{"parameterUnit":"m.s-1","parameterCategory":1,"la1":30.2991,"la2":30.254,"lo1":-89.0895,"lo2":-89.0444,"dy":0.0017,"dx":0.0017,"nx":28,"ny":28,"refTime":"2025-07-15T09:00:00:Z","depth":0,"parameterNumber":3,"parameterNumberName":"V-component_of_WINDS"},"data":[0,0,0,0,0,0,0,0,0,0,0,0,0,0,0,0,0,0,0,0,0,0,0,0,0,0,0,0,0,0,0,0,0,0,0,0,0,0,0,0,0,0,0,0,0,0,0,0,0,0,0,0,0,0,0,0,0,0,3.0156,3.0155,0,3.0062,3.0061,3.006,3.0041,3.0042,3.0042,3.0043,2.994,2.9936,2.9933,0,0,0,0,0,0,0,0,0,0,0,0,0,3.0311,3.0308,3.0156,3.0155,3.0154,3.0062,3.0061,3.0059,3.0041,3.0042,3.0043,3.0043,2.9941,2.9937,2.9933,0,0,0,0,0,0,0,0,0,0,0,0,0,3.0233,3.0307,3.0156,3.0133,3.013,3.0062,3.0061,3.0059,3.0041,3.0042,3.0043,3.0044,2.9942,2.9937,2.9932,2.9878,0,0,2.9916,2.9914,0,0,0,0,0,0,0,0,3.0237,3.0227,3.0138,3.0135,3.0131,3.0064,3.0077,2.9998,3.004,3.0074,3.0043,3.0044,2.998,2.9972,2.9951,2.9873,2.9868,2.9916,2.9913,2.991,2.9909,0,0,0,0,0,0,0,3.0242,3.0231,3.0118,3.0137,3.0133,3.0125,3.0115,3.0062,3.0022,3.0072,3.007,3.006,2.9978,2.9956,2.9949,2.9867,2.9916,2.9911,2.9908,2.9906,2.9736,2.9735,0,0,0,0,0,0,3.0253,3.0235,3.0121,3.0116,3.0188,3.0121,3.011,3.0085,3.0022,3.0014,3.0059,3.0059,2.9965,2.9955,2.9945,2.9876,2.991,2.9906,2.9903,2.9738,2.9736,2.9734,0,0,0,0,0,0,3.0256,3.0243,3.0125,3.0175,3.016,3.0118,3.0089,3.0082,3.006,3.0013,3.0005,3.0044,2.9965,2.9952,2.9894,2.9872,2.9903,2.9898,2.9739,2.9737,2.9735,2.9738,0,0,0,0,0,0,3.0261,3.0244,3.0226,3.0175,3.0157,3.0079,3.0087,3.008,3.0052,3.0052,2.9997,2.9989,2.9965,2.9902,2.9889,2.9866,2.9894,2.9741,2.9738,2.9736,2.974,2.9737,2.9734,0,0,0,0,0,3.0267,3.0229,3.0225,3.0211,3.0133,3.0078,3.0067,3.0042,3.0051,3.003,2.9999,2.9991,2.9877,2.9897,2.9882,2.9856,2.9742,2.9739,2.9736,2.9742,2.9737,2.9734,0,0,0,0,0,0,3.0276,3.0222,3.0217,3.0162,3.0125,3.0075,3.0048,3.0039,2.9997,2.9998,2.9967,2.9954,2.9898,2.9871,2.9894,2.9799,2.981,2.9803,2.9819,2.9814,2.9811,2.9819,2.989,0,0,0,0,0,3.0272,3.0234,3.0188,3.0144,3.0126,3.009,3.0065,3.0049,3.0009,2.9992,2.9957,2.9915,2.987,2.9841,2.9796,2.9736,2.9722,2.9711,2.9708,2.9705,2.97,2.9664,2.9658,2.9724,2.9724,2.9724,0,0,3.0263,3.0229,3.0206,3.0145,3.0115,3.0074,3.0077,3.0034,3.0002,2.9985,2.9929,2.9901,2.9852,2.9793,2.9764,2.9768,2.9678,2.9701,2.97,2.9696,2.966,2.9654,2.9648,2.9722,2.9722,2.9723,0,0,3.0225,3.0197,3.0156,3.0126,3.008,3.0056,3.0046,2.9997,2.9979,2.9922,2.9908,2.9868,2.9791,2.9757,2.9729,2.9676,2.9666,2.9662,2.9646,2.9611,2.9606,2.9601,2.9581,2.9574,2.9657,2.9657,2.9657,0,3.0219,3.016,3.0136,3.0094,3.0066,3.005,3.0007,2.9978,2.9919,2.9898,2.9904,2.9807,2.9773,2.9704,2.9691,2.967,2.9655,2.9669,2.9609,2.9604,2.9599,2.9579,2.9572,2.9657,2.9657,2.9657,2.9657,0,3.0153,3.0112,3.0084,3.003,2.9999,2.9957,2.9924,2.9895,2.9881,2.9856,2.9797,2.9755,2.9702,2.9684,2.967,2.9612,2.9616,2.9616,2.9626,2.9593,2.9574,2.9566,2.9657,2.9657,2.9657,2.9657,0,0,3.012,3.0053,3.0043,3.0018,2.9965,2.9931,2.9886,2.9836,2.9811,2.977,2.973,2.9664,2.9663,2.9632,2.9613,2.9582,2.9541,2.9585,2.9584,2.9578,2.9474,2.9474,2.9466,2.9535,2.9533,2.9532,2.9477,0,3.0076,2.9999,2.9976,2.991,2.987,2.9853,2.9813,2.9775,2.9749,2.9709,2.968,2.9634,2.9636,2.9617,2.9586,2.9553,2.952,2.9557,2.9495,2.9493,2.9507,2.9456,2.9457,2.9407,2.947,2.9468,2.9468,0,3.0015,2.9975,2.9906,2.9857,2.9839,2.9804,2.9755,2.9718,2.9673,2.9656,2.962,2.9603,2.9553,2.9566,2.9494,2.952,2.9493,2.9472,2.947,2.9462,2.9478,2.9446,2.9391,2.9383,2.9456,2.9457,2.9458,0,2.9996,2.9925,2.9874,2.9852,2.9794,2.977,2.9744,2.97,2.9671,2.9627,2.9607,2.9556,2.9529,2.9489,2.9457,2.947,2.9388,2.9399,2.937,2.9371,2.9354,2.9355,2.9292,2.9337,2.9338,2.9338,2.9338,0,2.9949,2.9907,2.9865,2.9834,2.9785,2.9757,2.9708,2.9681,2.9642,2.9602,2.9583,2.9546,2.9508,2.9464,2.9439,2.9383,2.937,2.9353,2.9347,2.9355,2.9357,2.9336,2.9339,2.9336,2.9336,2.9337,2.9337,0,2.9921,2.9892,2.9835,2.9784,2.977,2.9736,2.9691,2.9658,2.9632,2.9582,2.9568,2.9525,2.9473,2.9439,2.9371,2.9354,2.9292,2.9287,2.9309,2.9305,2.9279,2.9281,2.92,2.9187,2.9242,2.9241,2.9241,0,2.9893,2.9861,2.9807,2.9781,2.9755,2.9712,2.9682,2.9652,2.9621,2.9566,2.9539,2.9486,2.9442,2.9359,2.932,2.9268,2.9261,2.9236,2.9253,2.9261,2.9259,2.9261,2.9257,2.9233,2.9233,2.9232,2.9232,0,2.9847,2.9833,2.9792,2.9745,2.9711,2.9672,2.9632,2.9611,2.9573,2.9538,2.9486,2.9452,2.9384,2.933,2.9274,2.9244,2.9231,2.9227,2.9218,2.9225,2.9238,2.9229,2.9301,2.9229,2.9229,2.923,2.923,2.923,2.9817,2.9787,2.9744,2.9698,2.9665,2.9629,2.9595,2.9564,2.9521,2.9465,2.9448,2.9393,2.9345,2.9269,2.9238,2.9192,2.9195,2.9181,2.9178,2.9174,2.9174,2.9246,2.9182,2.9182,2.9182,2.9182,2.9182,0,2.9768,2.974,2.9698,2.9644,2.9607,2.96,2.9555,2.9524,2.9477,2.9435,2.9392,2.933,2.9278,2.9235,2.918,2.9152,2.9144,2.9138,2.9139,2.9132,2.9176,2.9189,2.9145,2.9145,2.9145,2.9145,2.9145,2.9145,2.9739,2.9687,2.9668,2.9598,2.9569,2.9517,2.9491,2.9456,2.9422,2.9355,2.9313,2.9285,2.9241,2.9183,2.9134,2.9122,2.9102,2.9097,2.9084,2.9125,2.9129,2.9133,2.9146,2.9094,2.9093,2.9044,2.9044,2.9043]}]]